Regional Weather Roundup
Issued by NWS

Home | Current Version | Previous Version | Graphics & Text | Print | Product List | Glossary On
Versions: 1 2 3 4 5 6 7 8 9 10 11 12 13 14 15 16 17 18 19 20 21 22 23 24 25 26 27 28 29 30 31 32 33 34 35 36 37 38 39 40 41 42 43 44 45 46 47 48 49 50
097
ASUS43 KIND 312309
RWRIN

WEATHER ROUNDUP FOR INDIANA
NATIONAL WEATHER SERVICE INDIANAPOLIS IN
700 PM EDT WED AUG 31 2016

NOTE: "FAIR" INDICATES FEW OR NO CLOUDS BELOW 12,000 FEET WITH NO
SIGNIFICANT WEATHER AND/OR OBSTRUCTIONS TO VISIBILITY.

* - STATION DOES NOT REPORT WEATHER SUCH AS PRECIPITATION OR FOG.

+ - STATION NOT QUALITY CONTROLLED BY THE NATIONAL WEATHER SERVICE.
    USE DATA WITH CAUTION...ESPECIALLY DEWPOINT AND RELATIVE
    HUMIDITY OBSERVATIONS.

INZ001>003-010>013-019-020-010000-
NORTHWEST INDIANA

CITY           SKY/WX    TMP DP  RH WIND       PRES   REMARKS
GARY /AIRPORT/ PTSUNNY   73  63  68 N15G29    30.07S
KNOX *+        MOSUNNY   70  37  30 N10G18    30.03S
LA PORTE +     MOSUNNY   72  61  69 N16       30.05S
MICHIGAN CITY+ MOSUNNY   70  61  73 CALM      30.05F
MONTICELLO +   CLOUDY    73  57  57 N12G17    30.01S
RENSSELAER +   MOSUNNY   72  61  68 N13G18    30.04R
VALPARAISO     MOSUNNY   71  59  65 N8G18     30.06R

$$

LMZ046-743>745-010000-
SOUTHERN LAKE MICHIGAN

STATION/POSITION TIME  TEMP    WIND        PRES    WAVE
                       AIR SEA DIR/SP/G            HT
                 (UTC) (F)     (DEG/KT/KT) (MB)    (FT)
BURNS HARBOR     2208   71     360/ 18/ 22 1017.9S
MICHIGAN CITY    2200   70     350/ 21/ 23   N/A
5NW MICH CITY    2300   71 65  360/ 17/ 23   N/A     7

$$

INZ004-005-014>016-021>024-010000-
NORTH CENTRAL INDIANA

CITY           SKY/WX    TMP DP  RH WIND       PRES   REMARKS
ELKHART        SUNNY    N/A N/A N/A NW15      30.01S
GOSHEN         CLOUDY    74  62  66 N8        30.00S
LOGANSPORT +   CLOUDY    72  59  64 N12G17    30.01S
PERU/GRISSOM   PTSUNNY   74  64  71 N13       29.98S
ROCHESTER +    CLOUDY    75  61  60 N10       30.01S
SOUTH BEND     CLOUDY    72  60  66 N16       30.03S
WARSAW +       MOSUNNY   73  68  83 NW7       30.00S

$$

INZ006>009-017-018-025>027-010000-
NORTHEAST INDIANA

CITY           SKY/WX    TMP DP  RH WIND       PRES   REMARKS
ANGOLA *+      MOSUNNY   73  66  78 N8        30.00R
AUBURN +       CLOUDY    75  68  78 N8        29.99S
FORT WAYNE     PTSUNNY   75  68  78 N9        29.98S
HUNTINGTON +   PTSUNNY   71  70  96 N6        29.98S

$$

INZ028-029-035-036-043>045-051>053-010000-
WEST CENTRAL INDIANA

CITY           SKY/WX    TMP DP  RH WIND       PRES   REMARKS
CRAWFORDSVL +  CLOUDY    75  68  79 N9G16     30.00R
GREENCASTLE +  PTSUNNY   79  72  78 N8        29.99S
LAFAYETTE      CLOUDY    73  62  68 N12G20    30.01R
TERRE HAUTE    CLOUDY    78  70  76 N6        29.98R

$$

INZ030>032-037>040-046>048-054>057-064-065-010000-
CENTRAL INDIANA

CITY           SKY/WX    TMP DP  RH WIND       PRES   REMARKS
COLUMBUS       PTSUNNY   75  73  94 SE7       29.96R
INDIANAPOLIS   CLOUDY    80  68  66 N15       29.97R
-EAGLE CREEK   CLOUDY    80  68  66 N9        29.97S
KOKOMO *+      CLOUDY    73  68  83 N10       29.99R
MARION +       CLOUDY    74  67  76 N7        29.99S
MT COMFORT *+  CLOUDY    75  66  73 N10       29.99R
SHELBYVILLE    MOSUNNY   81  69  67 N5        29.95S
ZIONSVILLE +   CLOUDY    74  68  80 N8        29.99S

$$

INZ033-034-041-042-049-050-058-059-010000-
EAST CENTRAL INDIANA

CITY           SKY/WX    TMP DP  RH WIND       PRES   REMARKS
MUNCIE         CLOUDY    74  70  87 SW3       29.98S

$$

INZ060-061-067>069-081>083-085>088-010000-
SOUTHWEST INDIANA

CITY           SKY/WX    TMP DP  RH WIND       PRES   REMARKS
EVANSVILLE     MOSUNNY   84  70  62 N9        29.96R
HUNTINGBURG *+ MOSUNNY   82  70  65 NW3       29.96R
WASHINGTON +   MOSUNNY   81  72  75 MISG      29.96R

$$

INZ062-063-066-070>080-084-089>092-010000-
SOUTH CENTRAL AND SOUTHEAST INDIANA

CITY           SKY/WX    TMP DP  RH WIND       PRES   REMARKS
BLOOMINGTON    CLOUDY    80  71  74 NW3       29.97S
MADISON *+     CLOUDY    77  68  73 NW3       29.97F

$$





USA.gov is the U.S. government's official web portal to all federal, state and local government web resources and services.